Volver al catálogo

KUIPER-00408

ActivoComunicacionesLEO
NORAD 68924·PAYLOAD·🇺🇸 United States

Lanzado Apr 30, 2026 desde Guiana Space Centre

Loading…

Próximos Pases (próximas 24 horas)

TLE

ActualizadoSource: CelesTrak SupGP

Época: Sep 14, 2026, 22:06 UTC

1 68924C 26098F   26257.92093750  .00004935  00000+0  64604-3 0  2571
2 68924  51.9000  16.2826 0000505 100.2923 248.9172 14.79927790    17

Sigue KUIPER-00408 en tiempo real con AllMySat

Download on the App Store